Location: Malcolm X Square
(37.7810°N, 122.4297°W)
Time: 13:32:06
(UTC+00:00)

Iridium 51 - Visible Passes

Search period start: 12 July 2024 00:00
Search period end: 22 July 2024 00:00
Orbit: 429 x 629 km, 86.4° (Epoch: 11 July)

Date Brightness Start Highest point End Pass type
(mag) Time Alt. Az. Time Alt. Az. Time Alt. Az.
14 Jul 7.5 04:34:03 10° W 04:34:46 10° W 04:35:30 10° WNW visible
15 Jul 7.3 04:22:20 10° WSW 04:23:48 12° W 04:25:15 10° NW visible
16 Jul 7.1 04:10:53 10° WSW 04:12:47 14° W 04:14:40 10° NW visible
17 Jul 7.0 03:59:30 10° WSW 04:01:45 16° W 04:03:57 10° NW visible
